User: anonymous   Login
Location: Trois-Rivi�res
(46.3500°N, 72.5500°W)
Time: 21:34:43
(UTC-04:00)
Language:

Cosmos 1975 - Orbit

View from above orbital plane
View from above orbital plane
View from above satellite
View from above satellite

Ground track
Ground track

The orbit data is extracted from the following two-line orbital elements,

1 19573U 88093A   15146.72487639  .00001371  00000-0  10069-3 0  9997
2 19573 082.5207 352.7819 0014438 344.5252 015.5530 15.02612795446743
Epoch (UTC): 26 May 2015 17:23:49
Eccentricity: 0.0014438
inclination: 82.5207°
perigee height: 549 km
apogee height: 569 km
right ascension of ascending node: 352.7819°
argument of perigee: 344.5252°
revolutions per day: 15.02612795
mean anomaly at epoch: 15.5530°
orbit number at epoch: 44674

The dashed part of the orbit path shows where the satellite is in the earth's shadow,  

DLR